• En España
  • Lista de países
  • Para 7 días
  • Temperatura del agua
  • Mapa Satelital
  • El tiempo en el mapa
  • Informadores
  • user-avatar
    Iniciar sesión

    Tiempo cada hora Tarija

    Hoy, 23 Septiembre, Domingo

    Tiempo Temperatura Precipitaciones Viento Presión Humedad
    00:00 +22°C° 0 mm 1 mps 595 mmHg 59%
    01:00 +22°C° 0 mm 1 mps 595 mmHg 60%
    02:00 +22°C° 0 mm 1 mps 594 mmHg 60%
    03:00 +21°C° 0 mm 1 mps 594 mmHg 59%
    04:00 +21°C° 0 mm 1 mps 594 mmHg 59%
    05:00 +20°C° 0 mm 2 mps 594 mmHg 58%
    06:00 +21°C° 0 mm 2 mps 595 mmHg 51%
    07:00 +24°C° 0 mm 1 mps 595 mmHg 44%
    08:00 +25°C° 0 mm 1 mps 596 mmHg 38%
    09:00 +27°C° 0 mm 1 mps 597 mmHg 33%
    10:00 +28°C° 0 mm 1 mps 597 mmHg 29%
    11:00 +30°C° 0 mm 1 mps 598 mmHg 25%
    12:00 +31°C° 0.1 mm 3 mps 598 mmHg 25%
    13:00 +32°C° 0.1 mm 4 mps 597 mmHg 25%
    14:00 +33°C° 0.1 mm 5 mps 597 mmHg 25%
    15:00 +32°C° 1.1 mm 6 mps 596 mmHg 31%
    16:00 +29°C° 1.1 mm 6 mps 596 mmHg 36%
    17:00 +28°C° 1.1 mm 6 mps 595 mmHg 42%
    18:00 +26°C° 4.4 mm 6 mps 595 mmHg 52%
    19:00 +22°C° 4.4 mm 5 mps 595 mmHg 63%
    20:00 +20°C° 4.4 mm 4 mps 595 mmHg 73%
    21:00 +20°C° 3 mm 4 mps 596 mmHg 73%
    22:00 +20°C° 3 mm 3 mps 596 mmHg 74%
    23:00 +19°C° 3 mm 3 mps 597 mmHg 74%

    Mañana, 24 Septiembre, Lunes

    Tiempo Temperatura Precipitaciones Viento Presión Humedad
    00:00 +19°C° 0.2 mm 2 mps 597 mmHg 70%
    01:00 +21°C° 0.2 mm 1 mps 596 mmHg 66%
    02:00 +19°C° 0.2 mm 0 mps 596 mmHg 63%
    03:00 +20°C° 0.2 mm 1 mps 596 mmHg 64%
    04:00 +20°C° 0.2 mm 1 mps 596 mmHg 65%
    05:00 +19°C° 0.2 mm 1 mps 595 mmHg 66%
    06:00 +20°C° 0 mm 1 mps 596 mmHg 66%
    07:00 +20°C° 0 mm 1 mps 597 mmHg 66%
    08:00 +21°C° 0 mm 1 mps 597 mmHg 65%
    09:00 +21°C° 0 mm 2 mps 598 mmHg 60%
    10:00 +24°C° 0 mm 2 mps 598 mmHg 54%
    11:00 +25°C° 0 mm 2 mps 599 mmHg 49%
    12:00 +25°C° 1.4 mm 3 mps 598 mmHg 50%
    13:00 +25°C° 1.4 mm 4 mps 597 mmHg 52%
    14:00 +26°C° 1.4 mm 4 mps 597 mmHg 54%
    15:00 +24°C° 3.2 mm 3 mps 596 mmHg 63%
    16:00 +21°C° 3.2 mm 2 mps 595 mmHg 72%
    17:00 +21°C° 3.2 mm 1 mps 594 mmHg 81%
    18:00 +19°C° 5.2 mm 2 mps 595 mmHg 83%
    19:00 +19°C° 5.2 mm 2 mps 595 mmHg 84%
    20:00 +18°C° 5.2 mm 2 mps 595 mmHg 86%
    21:00 +18°C° 1.5 mm 2 mps 596 mmHg 86%
    22:00 +18°C° 1.5 mm 2 mps 596 mmHg 87%
    23:00 +19°C° 1.5 mm 1 mps 597 mmHg 87%

    Pasado mañana, 25 Septiembre, Martes

    Tiempo Temperatura Precipitaciones Viento Presión Humedad
    00:00 +19°C° 0.3 mm 1 mps 596 mmHg 88%
    01:00 +19°C° 0.3 mm 1 mps 596 mmHg 89%
    02:00 +18°C° 0.3 mm 1 mps 595 mmHg 89%
    03:00 +18°C° 0.2 mm 1 mps 595 mmHg 89%
    04:00 +18°C° 0.2 mm 1 mps 595 mmHg 89%
    05:00 +18°C° 0.2 mm 1 mps 595 mmHg 89%
    06:00 +18°C° 0.1 mm 1 mps 596 mmHg 87%
    07:00 +19°C° 0.1 mm 1 mps 596 mmHg 84%
    08:00 +19°C° 0.1 mm 1 mps 597 mmHg 82%
    09:00 +20°C° 0.1 mm 1 mps 597 mmHg 74%
    10:00 +21°C° 0.1 mm 1 mps 597 mmHg 66%
    11:00 +23°C° 0.1 mm 2 mps 598 mmHg 58%
    12:00 +23°C° 0 mm 2 mps 597 mmHg 56%
    13:00 +24°C° 0 mm 2 mps 596 mmHg 53%
    14:00 +25°C° 0 mm 2 mps 596 mmHg 51%
    15:00 +24°C° 0.5 mm 3 mps 595 mmHg 59%
    16:00 +22°C° 0.5 mm 3 mps 595 mmHg 66%
    17:00 +21°C° 0.5 mm 3 mps 594 mmHg 74%
    18:00 +20°C° 0.2 mm 3 mps 594 mmHg 78%
    19:00 +19°C° 0.2 mm 3 mps 595 mmHg 83%
    20:00 +19°C° 0.2 mm 2 mps 595 mmHg 87%
    21:00 +18°C° 0.8 mm 2 mps 596 mmHg 88%
    22:00 +19°C° 0.8 mm 1 mps 596 mmHg 88%
    23:00 +18°C° 0.8 mm 1 mps 596 mmHg 88%

    26 Septiembre, Miércoles

    Tiempo Temperatura Precipitaciones Viento Presión Humedad
    00:00 +18°C° 0.4 mm 1 mps 595 mmHg 87%
    01:00 +18°C° 0.4 mm 1 mps 595 mmHg 86%
    02:00 +18°C° 0.4 mm 1 mps 595 mmHg 86%
    03:00 +18°C° 0.1 mm 1 mps 595 mmHg 85%
    04:00 +16°C° 0.1 mm 1 mps 595 mmHg 84%
    05:00 +16°C° 0.1 mm 1 mps 595 mmHg 84%
    06:00 +18°C° 0.1 mm 1 mps 595 mmHg 79%
    07:00 +19°C° 0.1 mm 1 mps 596 mmHg 75%
    08:00 +19°C° 0.1 mm 1 mps 597 mmHg 71%
    09:00 +21°C° 0 mm 1 mps 597 mmHg 62%
    10:00 +22°C° 0 mm 1 mps 597 mmHg 53%
    11:00 +24°C° 0 mm 2 mps 598 mmHg 45%
    12:00 +25°C° 0 mm 2 mps 597 mmHg 44%
    13:00 +25°C° 0 mm 2 mps 597 mmHg 43%
    14:00 +26°C° 0 mm 3 mps 596 mmHg 42%
    15:00 +25°C° 0.3 mm 3 mps 595 mmHg 51%
    16:00 +24°C° 0.3 mm 3 mps 595 mmHg 59%
    17:00 +22°C° 0.3 mm 3 mps 594 mmHg 67%
    18:00 +21°C° 0.2 mm 3 mps 594 mmHg 73%
    19:00 +20°C° 0.2 mm 3 mps 595 mmHg 79%
    20:00 +19°C° 0.2 mm 3 mps 595 mmHg 86%
    21:00 +19°C° 0.1 mm 2 mps 595 mmHg 86%
    22:00 +18°C° 0.1 mm 2 mps 595 mmHg 86%
    23:00 +18°C° 0.1 mm 2 mps 595 mmHg 87%

    27 Septiembre, Jueves

    Tiempo Temperatura Precipitaciones Viento Presión Humedad
    00:00 +18°C° 0.3 mm 2 mps 595 mmHg 85%
    01:00 +18°C° 0.3 mm 2 mps 594 mmHg 84%
    02:00 +18°C° 0.3 mm 2 mps 594 mmHg 82%
    03:00 +17°C° 0 mm 2 mps 594 mmHg 81%
    04:00 +17°C° 0 mm 2 mps 594 mmHg 80%
    05:00 +17°C° 0 mm 2 mps 593 mmHg 79%
    06:00 +18°C° 0 mm 2 mps 594 mmHg 70%
    07:00 +19°C° 0 mm 2 mps 595 mmHg 62%
    08:00 +21°C° 0 mm 2 mps 596 mmHg 53%
    09:00 +24°C° 0 mm 2 mps 596 mmHg 43%
    10:00 +25°C° 0 mm 2 mps 597 mmHg 33%
    11:00 +27°C° 0 mm 2 mps 597 mmHg 23%
    12:00 +28°C° 0 mm 2 mps 597 mmHg 22%
    13:00 +29°C° 0 mm 2 mps 596 mmHg 20%
    14:00 +30°C° 0 mm 2 mps 596 mmHg 18%
    15:00 +29°C° 0 mm 3 mps 595 mmHg 23%
    16:00 +29°C° 0 mm 4 mps 595 mmHg 27%
    17:00 +28°C° 0 mm 4 mps 594 mmHg 32%
    18:00 +27°C° 1.1 mm 4 mps 594 mmHg 43%
    19:00 +25°C° 1.1 mm 3 mps 594 mmHg 53%
    20:00 +23°C° 1.1 mm 2 mps 594 mmHg 64%
    21:00 +23°C° 0.8 mm 2 mps 594 mmHg 65%
    22:00 +21°C° 0.8 mm 2 mps 595 mmHg 66%
    23:00 +21°C° 0.8 mm 2 mps 595 mmHg 67%

    28 Septiembre, Viernes

    Tiempo Temperatura Precipitaciones Viento Presión Humedad
    00:00 +20°C° 0 mm 2 mps 594 mmHg 66%
    01:00 +20°C° 0 mm 2 mps 594 mmHg 66%
    02:00 +20°C° 0 mm 2 mps 593 mmHg 65%
    03:00 +19°C° 0 mm 2 mps 593 mmHg 64%
    04:00 +19°C° 0 mm 2 mps 593 mmHg 62%
    05:00 +19°C° 0 mm 2 mps 593 mmHg 61%
    06:00 +20°C° 0 mm 2 mps 594 mmHg 55%
    07:00 +23°C° 0 mm 2 mps 595 mmHg 50%
    08:00 +24°C° 0 mm 2 mps 596 mmHg 44%
    09:00 +26°C° 0 mm 2 mps 597 mmHg 36%
    10:00 +28°C° 0 mm 2 mps 597 mmHg 28%
    11:00 +30°C° 0 mm 2 mps 597 mmHg 19%
    12:00 +31°C° 0 mm 2 mps 597 mmHg 17%
    13:00 +32°C° 0 mm 2 mps 596 mmHg 14%
    14:00 +34°C° 0 mm 3 mps 596 mmHg 12%
    15:00 +33°C° 0 mm 3 mps 595 mmHg 14%
    16:00 +33°C° 0 mm 4 mps 595 mmHg 17%
    17:00 +32°C° 0 mm 4 mps 594 mmHg 19%
    18:00 +29°C° 0.9 mm 4 mps 594 mmHg 29%
    19:00 +27°C° 0.9 mm 3 mps 594 mmHg 39%
    20:00 +25°C° 0.9 mm 3 mps 594 mmHg 48%
    21:00 +24°C° 0.3 mm 2 mps 594 mmHg 50%
    22:00 +24°C° 0.3 mm 2 mps 594 mmHg 52%
    23:00 +23°C° 0.3 mm 2 mps 594 mmHg 53%
    Mostrar más